This demonstration page uses our WeatherBlox Daily Observations layout. Learn more.

Left ArrowRight Arrow

Hourly Observations for September 3, 2020

Temp ( °F °C ) Dew Point ( °F °C ) Humidity (%) Winds ( mph kmh ) Pressure ( in mb ) Visibility ( mi km ) Precip ( " mm )
12:54 am 00:54 Clear 66 18.9 60 15.6 81 81 S 10 17 29.76 1008 10 16.0934 0 0
1:54 am 01:54 Clear 70 21.1 61 16.1 73 73 SSW 12 19 29.76 1008 10 16.0934 0 0
2:54 am 02:54 Clear 70 21.1 61 16.1 73 73 SSW 10 17 29.75 1007 10 16.0934 0 0
3:54 am 03:54 Clear 69 20.6 61 16.1 76 76 SSW 12 19 29.75 1007 10 16.0934 0 0
4:54 am 04:54 Clear 68 20 61 16.1 78 78 SSW 9 15 29.75 1007 10 16.0934 0 0
5:54 am 05:54 Clear 69 20.6 62 16.7 78 78 W 9 15 29.8 1009 10 16.0934 0 0
6:54 am 06:54 Clear 68 20 61 16.1 78 78 NNW 10 17 29.85 1011 10 16.0934 0 0
7:54 am 07:54 Sunny 66 18.9 52 11.1 61 61 N 13 20 29.91 1013 9 14.48406 0 0
8:54 am 08:54 Sunny 69 20.6 46 7.8 44 44 N 25 41 29.94 1014 9 14.48406 0 0
9:54 am 09:54 Sunny 71 21.7 43 6.1 36 36 N 26 43 29.98 1015 9 14.48406 0 0
10:54 am 10:54 Sunny 73 22.8 43 6.1 34 34 N 21 33 30.01 1016 10 16.0934 0 0
11:54 am 11:54 Sunny 74 23.3 42 5.6 32 32 N 20 31 30.03 1017 10 16.0934 0 0
12:54 pm 12:54 Sunny 77 25 43 6.1 30 30 NW 15 24 30.05 1018 10 16.0934 0 0
1:54 pm 13:54 Sunny 78 25.6 42 5.6 28 28 NNW 12 19 30.04 1017 10 16.0934 0 0
2:54 pm 14:54 Sunny 81 27.2 40 4.4 23 23 NNW 16 26 30.03 1017 10 16.0934 0 0
3:54 pm 15:54 Sunny 81 27.2 41 5 24 24 N 14 22 30.03 1017 10 16.0934 0 0
4:54 pm 16:54 Sunny 80 26.7 40 4.4 24 24 NNW 15 24 30.02 1017 10 16.0934 0 0
5:54 pm 17:54 Sunny 79 26.1 39 3.9 24 24 NNW 12 19 30.02 1017 10 16.0934 0 0
6:54 pm 18:54 Sunny 77 25 39 3.9 26 26 NNW 9 15 30.03 1017 10 16.0934 0 0
7:54 pm 19:54 Sunny 73 22.8 42 5.6 33 33 NW 6 9 30.04 1017 9 14.48406 0 0
8:54 pm 20:54 Hazy 65 18.3 44 6.7 47 47 NNW 3 6 30.06 1018 4 6.43736 0 0
9:54 pm 21:54 Clear 56 13.3 47 8.3 72 72 NNW 3 6 30.1 1019 10 16.0934 0 0
10:54 pm 22:54 Clear 57 13.9 47 8.3 69 69 N 3 6 30.11 1020 9 14.48406 0 0
11:54 pm 23:54 Clear 56 13.3 47 8.3 72 72 Calm 30.12 1020 10 16.0934 0 0

Powered by AerisWeather